OE1HTB-13 Weather Reports


time (UTC)temp
C
wind
direction
speed
KPH
gust
KPH
rain 1hr
cm
rain 24hr
cm
rain mn
cm
humidity
%
barometer
mb
20260905223113 17 144 3.2 8.0 0.00 0.15 0.00 71 1021.8
20260905221612 17 299 3.2 9.7 0.00 0.15 0.00 70 1021.5
20260905220111 17 215 3.2 8.0 0.00 0.15 0.00 70 1021.4
20260905214611 17 29 1.6 4.8 0.00 0.15 0.15 70 1021.2
20260905213112 18 244 3.2 9.7 0.00 0.15 0.15 69 1020.9
20260905211611 18 92 1.6 12.9 0.00 0.15 0.15 68 1020.9
20260905210111 18 171 3.2 9.7 0.00 0.15 0.15 66 1020.7
20260905204611 19 95 3.2 12.9 0.00 0.15 0.15 64 1020.8
20260905203111 19 246 3.2 14.5 0.00 0.15 0.15 64 1020.6
20260905201611 19 44 3.2 16.1 0.00 0.15 0.15 65 1020.6
20260905200110 19 121 1.6 12.9 0.00 0.15 0.15 65 1020.6
20260905194611 18 334 3.2 9.7 0.00 0.15 0.15 67 1020.3
20260905193110 19 70 1.6 8.0 0.00 0.15 0.15 66 1020.3
20260905191610 19 159 3.2 11.3 0.00 0.15 0.15 65 1020.2
20260905190110 19 74 1.6 9.7 0.00 0.15 0.15 65 1020.0
20260905184615 20 9 3.2 9.7 0.00 0.15 0.15 63 1019.8
20260905183115 20 161 1.6 9.7 0.00 0.15 0.15 63 1019.6
20260905181615 20 317 3.2 11.3 0.00 0.15 0.15 62 1019.4
20260905180115 20 172 3.2 11.3 0.00 0.15 0.15 61 1019.2
20260905174614 20 340 1.6 11.3 0.00 0.15 0.15 60 1019.0
20260905173114 20 66 3.2 9.7 0.00 0.15 0.15 59 1018.9
20260905171614 21 265 3.2 11.3 0.00 0.15 0.15 58 1018.6
20260905170114 21 324 1.6 6.4 0.00 0.15 0.15 57 1018.7
20260905164614 21 216 3.2 11.3 0.00 0.15 0.15 55 1018.5
20260905163114 21 279 3.2 11.3 0.00 0.15 0.15 56 1018.4
20260905161614 21 308 3.2 9.7 0.00 0.15 0.15 55 1018.1
20260905160114 22 296 3.2 12.9 0.00 0.15 0.15 55 1018.2
20260905154613 22 101 4.8 14.5 0.00 0.15 0.15 54 1018.1
20260905153113 22 263 3.2 12.9 0.00 0.15 0.15 53 1018.0
20260905151613 23 328 3.2 16.1 0.00 0.15 0.15 53 1017.8
20260905150113 23 173 3.2 12.9 0.00 0.15 0.15 51 1017.8
20260905144613 25 360 4.8 17.7 0.00 0.15 0.15 49 1017.8
20260905143114 25 317 3.2 9.7 0.00 0.15 0.15 50 1017.8
20260905141613 24 94 4.8 17.7 0.00 0.15 0.15 51 1017.9
20260905140113 25 355 4.8 16.1 0.00 0.15 0.15 52 1018.0
20260905134612 23 136 4.8 14.5 0.00 0.15 0.15 54 1018.0
20260905133112 24 309 3.2 14.5 0.00 0.15 0.15 52 1018.0
20260905131613 23 278 4.8 17.7 0.00 0.15 0.15 54 1018.2
20260905130112 23 132 4.8 17.7 0.00 0.15 0.15 54 1018.3
20260905124613 24 84 4.8 16.1 0.00 0.15 0.15 55 1018.1
20260905123112 23 232 6.4 16.1 0.00 0.15 0.15 55 1018.3
20260905121612 23 331 4.8 17.7 0.00 0.15 0.15 56 1018.5
20260905120111 23 199 4.8 16.1 0.00 0.15 0.15 54 1018.3
20260905114611 23 26 4.8 19.3 0.00 0.15 0.15 55 1018.2
20260905113111 21 120 6.4 17.7 0.00 0.15 0.15 62 1018.4
20260905111611 23 293 6.4 16.1 0.00 0.15 0.15 59 1018.5
20260905110112 22 234 4.8 22.5 0.00 0.15 0.15 60 1018.4
20260905104613 21 142 4.8 22.5 0.00 0.15 0.15 62 1018.4
20260905103111 21 123 6.4 19.3 0.00 0.15 0.15 70 1018.4
20260905101610 20 67 4.8 16.1 0.00 0.15 0.15 71 1018.5
20260905100110 19 261 4.8 17.7 0.00 0.15 0.15 74 1018.5
20260905094611 17 236 3.2 14.5 0.00 0.15 0.15 77 1018.4
20260905093111 17 243 4.8 11.3 0.03 0.15 0.15 75 1018.5
20260905091610 17 337 4.8 11.3 0.03 0.15 0.15 80 1018.4
20260905090110 16 309 3.2 14.5 0.03 0.15 0.15 81 1018.3
20260905084610 16 157 3.2 11.3 0.03 0.15 0.15 82 1018.2
20260905083111 16 208 3.2 11.3 0.00 0.13 0.13 82 1018.4
20260905081614 16 319 3.2 12.9 0.00 0.13 0.13 80 1018.7
20260905080114 16 236 1.6 11.3 0.00 0.13 0.13 81 1018.7
20260905074614 15 43 1.6 4.8 0.00 0.13 0.13 84 1019.0
20260905073114 15 165 1.6 6.4 0.00 0.13 0.13 83 1019.0
20260905071614 15 196 3.2 9.7 0.00 0.13 0.13 82 1018.8
20260905070115 15 198 3.2 11.3 0.00 0.13 0.13 83 1018.0
20260905064614 15 207 3.2 12.9 0.00 0.13 0.13 80 1018.8
20260905063113 16 173 3.2 12.9 0.00 0.13 0.13 78 1018.7
20260905061613 16 203 4.8 14.5 0.00 0.13 0.13 73 1017.5
20260905060113 16 212 6.4 20.9 0.00 0.13 0.13 70 1017.2
20260905054613 16 346 3.2 9.7 0.00 0.13 0.13 75 1016.7
20260905053113 16 247 3.2 12.9 0.00 0.13 0.13 75 1016.7
20260905051613 16 232 3.2 12.9 0.00 0.13 0.13 78 1015.8
20260905050113 16 143 4.8 16.1 0.00 0.13 0.13 79 1015.3
20260905044612 15 194 3.2 25.7 0.03 0.13 0.13 84 1014.5
20260905043112 16 121 3.2 12.9 0.10 0.13 0.13 84 1015.3
20260905041612 16 272 1.6 4.8 0.10 0.13 0.13 85 1015.0
20260905040112 17 232 3.2 8.0 0.10 0.13 0.13 82 1014.8
20260905034612 18 319 4.8 16.1 0.08 0.10 0.10 76 1014.6
20260905033112 19 5 4.8 14.5 0.00 0.03 0.03 70 1014.4
20260905031611 20 254 6.4 19.3 0.00 0.03 0.03 71 1014.2
20260905030113 20 360 4.8 22.5 0.03 0.03 0.03 75 1013.3
20260905024611 20 34 1.6 6.4 0.03 0.03 0.03 82 1012.4
20260905023111 20 327 1.6 6.4 0.03 0.03 0.03 79 1012.0
20260905021611 21 297 4.8 8.0 0.03 0.03 0.03 70 1012.0
20260905020111 22 236 0.0 6.4 0.00 0.00 0.00 54 1012.3
20260905014610 22 5 1.6 6.4 0.00 0.00 0.00 54 1011.9
20260905013110 22 86 0.0 8.0 0.00 0.00 0.00 54 1011.9
20260905011610 22 89 0.0 3.2 0.00 0.00 0.00 55 1011.7
20260905010110 22 213 0.0 4.8 0.00 0.00 0.00 53 1011.7
20260905004610 22 136 1.6 9.7 0.00 0.00 0.00 53 1011.6
20260905003110 22 19 1.6 4.8 0.00 0.00 0.00 54 1011.7
20260905001610 22 173 1.6 4.8 0.00 0.00 0.00 54 1011.5
20260905000111 22 20 1.6 4.8 0.00 0.00 0.00 55 1011.4
20260904234609 22 76 3.2 8.0 0.00 0.00 0.00 55 1011.4
20260904233109 22 51 1.6 8.0 0.00 0.00 0.00 55 1011.4
20260904231614 22 355 1.6 3.2 0.00 0.00 0.00 55 1011.4
20260904230114 22 310 1.6 3.2 0.00 0.00 0.00 56 1011.2
20260904224614 22 310 1.6 6.4 0.00 0.00 0.00 55 1011.1